Date String (YYYY-MM-DD hh:mm:ss) UTC,Instrument flags,absolute air pressure of the measurement (hPa),sample flow rate (lpm),inlet stack bypass flow (lpm),air temperature of the measurement (°C),ambient temperature measured by the external sensor (°C),aerosol sample conditioner tube jacket temperature (°C),OPC LED temperature (°C),internal box temperature (°C),relative humidity of the measurement (%),span deviation,mass concentration of particles derived from Lorenz-Mie calculation of OPC scattering (μg/m³),mass concentration of particles derived from Lorenz-Mie calculation of OPC scattering (μg/m³),mass concentration of particles derived from Lorenz-Mie calculation of OPC scattering (μg/m³)
DateTimeUTC,F1_M11,P_M11,Q1_M11,Q2_M11,T1_M11,T2_M11,T3_M11,T4_M11,T5_M11,U1_M11,ZSPAN_M11,X2_M11,X0_M11,X1_M11
2023-11-20 07:00:00,SystemResetWarning,0824.4,5.00,000.00,024.8,023.6,000.0,033.2,026.2,13.6,0000.0,0001.94,0002.56,0001.70
2023-11-20 07:01:00,SystemResetWarning,0824.4,5.00,000.00,024.8,023.6,000.0,033.2,026.2,13.6,0000.0,0001.92,0002.52,0001.69
2023-11-20 07:02:00,SystemResetWarning,0824.4,5.00,000.00,024.8,023.6,000.0,033.2,026.1,13.6,0000.0,0001.90,0002.47,0001.69
2023-11-20 07:03:00,SystemResetWarning,0824.4,5.00,000.00,024.8,023.6,000.0,033.2,026.1,13.6,0000.0,0001.88,0002.41,0001.70
2023-11-20 07:04:00,SystemResetWarning,0824.4,5.00,000.00,024.8,023.6,000.0,033.2,026.1,13.6,0000.0,0001.86,0002.36,0001.70
2023-11-20 07:05:00,SystemResetWarning,0824.4,4.99,000.00,024.8,023.6,000.0,033.2,026.1,13.5,0000.0,0001.88,0002.89,0001.71
2023-11-20 07:06:00,SystemResetWarning,0824.4,5.00,000.00,024.8,023.6,000.0,033.2,026.1,13.5,0000.0,0001.87,0003.47,0001.71
2023-11-20 07:07:00,SystemResetWarning,0824.4,5.00,000.00,024.8,023.6,000.0,033.2,026.1,13.5,0000.0,0001.87,0003.41,0001.72
2023-11-20 07:08:00,SystemResetWarning,0824.4,5.00,000.00,024.8,023.6,000.0,033.2,026.1,13.6,0000.0,0001.87,0003.41,0001.72
2023-11-20 07:09:00,SystemResetWarning,0824.4,4.99,000.00,024.7,023.6,000.0,033.2,026.1,13.5,0000.0,0001.88,0003.41,0001.72
2023-11-20 07:10:00,SystemResetWarning,0824.4,5.00,000.00,024.7,023.6,000.0,033.2,026.1,13.5,0000.0,0001.87,0003.46,0001.74
2023-11-20 07:11:00,SystemResetWarning,0824.4,5.00,000.00,024.7,023.6,000.0,033.2,026.0,13.5,0000.0,0001.86,0003.44,0001.74
2023-11-20 07:12:00,SystemResetWarning,0824.4,5.00,000.00,024.7,023.6,000.0,033.2,026.1,13.5,0000.0,0001.87,0003.46,0001.75
2023-11-20 07:13:00,SystemResetWarning,0824.4,5.00,000.00,024.7,023.5,000.0,033.2,026.1,13.5,0000.0,0001.89,0003.52,0001.74
2023-11-20 07:14:00,SystemResetWarning,0824.4,5.00,000.00,024.7,023.5,000.0,033.1,026.1,13.5,0000.0,0001.90,0003.55,0001.74
2023-11-20 07:15:00,SystemResetWarning,0824.3,5.00,000.00,024.7,023.5,000.0,033.1,026.0,13.4,0000.0,0001.93,0003.59,0001.74
2023-11-20 07:16:00,SystemResetWarning,0824.4,5.00,000.00,024.7,023.5,000.0,033.1,026.1,13.5,0000.0,0001.92,0003.31,0001.74
2023-11-20 07:17:00,SystemResetWarning,0824.4,5.00,000.00,024.7,023.5,000.0,033.1,026.0,13.5,0000.0,0001.92,0002.45,0001.73
2023-11-20 07:18:00,SystemResetWarning,0824.4,5.00,000.00,024.7,023.5,000.0,033.1,026.1,13.5,0000.0,0001.90,0002.40,0001.73
2023-11-20 07:19:00,SystemResetWarning,0824.4,5.00,000.00,024.7,023.5,000.0,033.1,026.0,13.5,0000.0,0001.94,0002.48,0001.74
2023-11-20 07:20:00,SystemResetWarning,0824.4,5.00,000.00,024.7,023.5,000.0,033.1,026.0,13.5,0000.0,0001.94,0002.51,0001.73
2023-11-20 07:21:00,SystemResetWarning,0824.4,5.00,000.00,024.7,023.5,000.0,033.1,026.0,13.5,0000.0,0001.93,0002.43,0001.73
2023-11-20 07:22:00,SystemResetWarning,0824.3,5.00,000.00,024.7,023.5,000.0,033.1,026.0,13.5,0000.0,0001.92,0002.40,0001.72
2023-11-20 07:23:00,SystemResetWarning,0824.3,5.00,000.00,024.7,023.5,000.0,033.1,026.0,13.5,0000.0,0001.95,0002.46,0001.73
2023-11-20 07:24:00,SystemResetWarning,0824.3,5.00,000.00,024.7,023.5,000.0,033.1,026.0,13.5,0000.0,0001.95,0002.43,0001.74
2023-11-20 07:25:00,SystemResetWarning,0824.3,5.00,000.00,024.6,023.5,000.0,033.1,025.9,13.5,0000.0,0001.93,0002.40,0001.74
2023-11-20 07:26:00,SystemResetWarning,0824.4,5.00,000.00,024.6,023.4,000.0,033.1,025.9,13.5,0000.0,0001.93,0002.41,0001.74
2023-11-20 07:27:00,SystemResetWarning,0824.4,5.00,000.00,024.6,023.4,000.0,033.1,025.9,13.5,0000.0,0001.96,0002.49,0001.76
2023-11-20 07:28:00,SystemResetWarning,0824.4,5.00,000.00,024.6,023.4,000.0,033.1,025.9,13.5,0000.0,0001.99,0002.54,0001.77
2023-11-20 07:29:00,SystemResetWarning,0824.4,5.01,000.00,024.6,023.4,000.0,033.0,025.9,13.5,0000.0,0001.97,0002.50,0001.76
2023-11-20 07:30:00,SystemResetWarning,0824.4,5.00,000.00,024.6,023.4,000.0,033.0,025.9,13.5,0000.0,0001.95,0002.50,0001.76
2023-11-20 07:31:00,SystemResetWarning,0824.4,5.00,000.00,024.6,023.4,000.0,033.0,025.9,13.5,0000.0,0001.95,0002.50,0001.78
2023-11-20 07:32:00,SystemResetWarning,0824.4,5.00,000.00,024.6,023.4,000.0,033.0,025.9,13.5,0000.0,0001.96,0002.51,0001.79
2023-11-20 07:33:00,SystemResetWarning,0824.4,5.00,000.00,024.6,023.4,000.0,033.0,025.9,13.5,0000.0,0001.98,0002.53,0001.81
2023-11-20 07:34:00,SystemResetWarning,0824.4,5.00,000.00,024.5,023.4,000.0,033.0,025.9,13.5,0000.0,0001.95,0002.46,0001.80
2023-11-20 07:35:00,SystemResetWarning,0824.4,5.00,000.00,024.5,023.4,000.0,033.0,025.8,13.5,0000.0,0001.95,0002.46,0001.80
2023-11-20 07:36:00,SystemResetWarning,0824.4,5.00,000.00,024.5,023.4,000.0,033.0,025.8,13.4,0000.0,0001.98,0002.51,0001.81
2023-11-20 07:37:00,SystemResetWarning,0824.4,5.00,000.00,024.5,023.4,000.0,033.0,025.8,13.4,0000.0,0001.97,0002.48,0001.82
2023-11-20 07:38:00,SystemResetWarning,0824.5,5.00,000.00,024.5,023.4,000.0,033.0,025.7,13.4,0000.0,0001.96,0002.45,0001.82
2023-11-20 07:39:00,SystemResetWarning,0824.5,5.00,000.00,024.5,023.3,000.0,033.0,025.8,13.4,0000.0,0001.94,0002.40,0001.82
2023-11-20 07:40:00,SystemResetWarning,0824.5,5.00,000.00,024.5,023.3,000.0,033.0,025.9,13.4,0000.0,0001.98,0002.50,0001.83
2023-11-20 07:41:00,SystemResetWarning,0824.5,5.00,000.00,024.5,023.3,000.0,032.9,025.8,13.4,0000.0,0002.00,0002.53,0001.83
2023-11-20 07:42:00,SystemResetWarning,0824.5,5.00,000.00,024.5,023.3,000.0,032.9,025.8,13.4,0000.0,0002.02,0002.52,0001.84
2023-11-20 07:43:00,SystemResetWarning,0824.5,5.00,000.00,024.5,023.3,000.0,032.9,025.8,13.3,0000.0,0002.03,0002.55,0001.84
2023-11-20 07:44:00,SystemResetWarning,0824.5,5.00,000.00,024.5,023.3,000.0,032.9,025.8,13.3,0000.0,0002.02,0002.54,0001.82
2023-11-20 07:45:00,SystemResetWarning,0824.5,5.00,000.00,024.5,023.3,000.0,032.9,025.7,13.3,0000.0,0002.04,0002.59,0001.83
2023-11-20 07:46:00,SystemResetWarning,0824.6,5.00,000.00,024.5,023.3,000.0,032.9,025.7,13.3,0000.0,0002.05,0002.60,0001.83
2023-11-20 07:47:00,SystemResetWarning,0824.5,5.00,000.00,024.5,023.3,000.0,032.9,025.7,13.3,0000.0,0002.04,0002.60,0001.83
2023-11-20 07:48:00,SystemResetWarning,0824.6,4.99,000.00,024.4,023.2,000.0,032.9,025.7,13.2,0000.0,0002.04,0002.74,0001.81
2023-11-20 07:49:00,SystemResetWarning,0824.6,5.00,000.00,024.4,023.2,000.0,032.9,025.7,13.2,0000.0,0002.05,0002.89,0001.81
2023-11-20 07:50:00,SystemResetWarning,0824.6,5.00,000.00,024.4,023.2,000.0,032.9,025.7,13.2,0000.0,0002.05,0002.91,0001.80
2023-11-20 07:51:00,SystemResetWarning,0824.6,5.00,000.00,024.4,023.2,000.0,032.9,025.7,13.2,0000.0,0002.04,0002.86,0001.80
2023-11-20 07:52:00,SystemResetWarning,0824.6,5.00,000.00,024.4,023.2,000.0,032.9,025.7,13.2,0000.0,0002.02,0002.78,0001.80
2023-11-20 07:53:00,SystemResetWarning,0824.6,5.00,000.00,024.4,023.2,000.0,032.9,025.7,13.1,0000.0,0002.00,0002.75,0001.79
2023-11-20 07:54:00,SystemResetWarning,0824.7,5.00,000.00,024.4,023.2,000.0,032.8,025.7,13.1,0000.0,0002.01,0002.78,0001.77
2023-11-20 07:55:00,SystemResetWarning,0824.7,5.00,000.00,024.4,023.1,000.0,032.8,025.7,13.1,0000.0,0001.99,0002.77,0001.77
2023-11-20 07:56:00,SystemResetWarning,0824.7,4.99,000.00,024.4,023.1,000.0,032.8,025.6,13.1,0000.0,0001.98,0002.76,0001.75
2023-11-20 07:57:00,SystemResetWarning,0824.7,5.00,000.00,024.4,023.1,000.0,032.8,025.6,13.1,0000.0,0002.01,0002.81,0001.76
2023-11-20 07:58:00,SystemResetWarning,0824.7,5.00,000.00,024.3,023.1,000.0,032.8,025.6,13.1,0000.0,0002.00,0002.77,0001.76
2023-11-20 07:59:00,SystemResetWarning,0824.7,5.00,000.00,024.3,023.1,000.0,032.8,025.6,13.1,0000.0,0002.03,0002.73,0001.77
